星链-11460 (STARLINK-11460)

导读

STARLINK-11460是美国太空探索技术公司(SpaceX)研发运营的星链(Starlink)系列低轨互联网卫星,于2024年11月24日发射升空,目前处于在轨运行状态。该卫星运行在近地点约358.7千米、远地点约359.8千米轨道,轨道倾角53.155°,为全球提供高速低延迟互联网服务,助力缩小数字鸿沟,同时可为军事、航空等领域提供通信支持。

基本信息
目录编号:
62069
目录名称:
STARLINK-11460
国际标识:
2024-217N
轨道中心:
EARTH
卫星名称:
星链-11460
卫星全名:
星链-11460 (STARLINK-11460)
卫星状态:
在轨 (已飞行656 天)
发射日期:
2024-11-24 UTC
国别 :
美国 (US)
星等 :
--
该卫星已列入 空间交会检测服务 Space Conjunction Data Service (SCDS) ,当前飞行风险评估等级: 无高风险
轨道信息
数据来源 国际轨道数据
星历时间: 2026-09-11T00:13:29+0800
16小时前
查看轨道信息
半长轴: 6737.603km
偏心率: 0.0001271
轨道倾角: 53.156°
近地点辐角 55.964°
升交点赤经 239.637°
平近点角 304.150°
近地点: 358.609km
远地点: 360.323km
周期: 91.731分钟
每日圈数: 15.698012
详细信息
固有亮度:
5
最大亮度:
2.5
卫星平台:
Starlink V1.0
覆盖范围:
全球
运营商:
太空探索技术公司
运营商所在国:
美国
制造商(研发单位):
太空探索技术公司
制造商所在国:
美国
使用方式:
暂无
卫星简介
Starlink 计划是 SpaceX 推出的全球卫星互联网项目,通过发射低轨道卫星,为全球尤其是偏远地区提供高速、低延迟的互联网服务。自 2019 年起,Starlink 已部署数千颗卫星,旨在缩小全球数字鸿沟,推动互联网普及。该项目还为军事、航空等行业提供通信支持,带来广泛经济效益。
2D轨道图
3D轨道图
轨道高度分析图
轨道倾角分析图
轨道综合分析图
查看轨道综合分析图
交会数据列表
事件ID 空间交会对象 最接近时刻(TCA) 交会距离 交会风险概率(CRP) 交会风险指数(CRI) 操作
CDM_260913-204806-206906-301721
2026-09-13T
20:48:44+0000
2.961 km
极远距离
9.3611E-7 极低风险 0.34
CDM_260913-083606-206906-423821
2026-09-13T
08:36:49+0000
2.856 km
极远距离
8.959955E-7 极低风险 0.34
与全量物体交会距离演化趋势
与全量物体交会风险概率演化趋势